sat.trackr.live / text

‹ back to catalog

STARLINK-3048

NORAD 49148 · 2021-082U

PAYLOAD ACTIVE UNKNOWN

§ Identity

Operator
Country
US
Launch date
2021-09-14
Launch site
AFWTR
Launch vehicle
Mass (kg)
RCS (m²)

Purposes: comms

External: N2YO · Heavens-Above · Gunter

§ Orbital elements

Epoch: 2026-05-25T03:29:23.832672Z

Period
96.16 min
Inclination
69.9998°
Eccentricity
0.0003245
Mean motion
14.97512055 rev/d
Perigee alt
572.3 km
Apogee alt
576.8 km
Semi-major
6,952.7 km
B*
-9.4374e-5
RAAN
82.6996°
Arg perigee
264.8816°
Mean anomaly
95.1972°
Rev number
25,789

§ Raw data

STARLINK-30481 49148U 21082U   26145.14541473 -.00001195  00000+0 -94374-4 0  99942 49148  69.9998  82.6996 0003245 264.8816  95.1972 14.97512055257890

JSON: /api/v1/satellites/49148 · /tle

For live sub-satellite position, see the globe view (requires WebGL).

§ Visibility from observer

Set your observer location to see the next 7 days of passes ≥ 10°. The values pass through the URL so the page stays shareable.

No JS? Fill the form by hand. The geolocation button needs JavaScript.